Weather History for Alexandria, Egypt

Change the Weather History Date:

Sunday, March 30, 2014

  Actual Average Record
Temperature  
Mean Temperature 65 °F -  
Max Temperature 70 °F 72 °F 86 °F (2001)
Min Temperature 60 °F 56 °F 48 °F (1997)
Growing Degree Days 15 (Base 50)    
Moisture  
Dew Point 52 °F    
Average Humidity 63    
Maximum Humidity 72    
Minimum Humidity 47    
Precipitation  
Precipitation 0.00 in 0.01 in - ()
Sea Level Pressure  
Sea Level Pressure 29.85 in    
Wind  
Wind Speed 9 mph ()    
Max Wind Speed 13 mph    
Max Gust Speed -    
Visibility 6.1 miles    
Events      
Averages and records for this station are not official NWS values.
T = Trace of Precipitation, MM = Missing Value Source: Averaged Metar Reports

Daily Weather History Graph

Daily Weather History Graph

Search for Another Location

Airport:

Trip Planner

Search our weather history database for the weather conditions in past years. The results will help you decide how hot, cold, wet, or windy it might be!

Date:

Astronomy

Mar. 30, 2014 Rise Set
Actual Time 5:51 AM EET 6:18 PM EET
Civil Twilight 5:27 AM EET 6:42 PM EET
Nautical Twilight 4:59 AM EET 7:10 PM EET
Astronomical Twilight 4:30 AM EET 7:39 PM EET
Moon 5:23 AM EET (3/30) 6:07 PM EET (3/30)
Length of Visible Light 13h 14m
Length of Day
12h 26m
Waning Crescent, 0% of the Moon is Illuminated
Mar 30
Waning Crescent
Mar 30
New
Apr 7
First Quarter
Apr 15
Full
Apr 22
Last Quarter

Hourly Weather History & Observations

Time (EET) Temp. Dew Point Humidity Pressure Visibility Wind Dir Wind Speed Gust Speed Precip Events Conditions
12:00 AM 60.8 °F 51.8 °F 72% 29.86 in 6.2 mi NW 10.4 mph - N/A   Partly Cloudy
1:00 AM 62.6 °F 51.8 °F 68% 29.83 in 6.2 mi NNW 11.5 mph - N/A   Partly Cloudy
2:00 AM 62 °F 52 °F 62% 29.83 in 6 mi NW 9.2 mph - -   Scattered Clouds
2:00 AM 62.6 °F 51.8 °F 68% 29.83 in 6.2 mi NW 9.2 mph - N/A   Partly Cloudy
3:00 AM 60.8 °F 51.8 °F 72% 29.80 in 6.2 mi NW 11.5 mph - N/A   Partly Cloudy
4:00 AM 62.6 °F 51.8 °F 68% 29.77 in 6.2 mi NNW 12.7 mph - N/A   Partly Cloudy
5:00 AM 62 °F 53 °F 64% 29.80 in 6 mi NNW 12.7 mph - -   Scattered Clouds
5:00 AM 62.6 °F 53.6 °F 72% 29.77 in 6.2 mi NNW 12.7 mph - N/A   Partly Cloudy
8:00 AM 65 °F 54 °F 58% 29.85 in 6 mi WNW 12.7 mph - -   Partly Cloudy
9:00 AM 68.0 °F 53.6 °F 60% 29.83 in 6.2 mi NNW 11.5 mph - N/A   Scattered Clouds
11:00 AM 67 °F 54 °F 53% 29.87 in 6 mi NW 11.5 mph - -   Partly Cloudy
11:00 AM 68.0 °F 53.6 °F 60% 29.86 in 6.2 mi NW 11.5 mph - N/A   Scattered Clouds
12:00 PM 68.0 °F 53.6 °F 60% 29.86 in 6.2 mi NNW 11.5 mph - N/A   Scattered Clouds
1:00 PM 69.8 °F 53.6 °F 56% 29.86 in 6.2 mi NNW 10.4 mph - N/A   Scattered Clouds
2:00 PM 69 °F 53 °F 47% 29.83 in 6 mi North 10.4 mph - -   Scattered Clouds
2:00 PM 69.8 °F 53.6 °F 56% 29.83 in 6.2 mi North 10.4 mph - N/A   Partly Cloudy
3:00 PM 68.0 °F 53.6 °F 60% 29.83 in 6.2 mi NW 8.1 mph - N/A   Scattered Clouds
4:00 PM 68.0 °F 53.6 °F 60% 29.83 in 6.2 mi NW 9.2 mph - N/A   Scattered Clouds
5:00 PM 67 °F 53 °F 52% 29.84 in 6 mi NNW 11.5 mph - -   Partly Cloudy
5:00 PM 66.2 °F 53.6 °F 64% 29.83 in 6.2 mi NNW 11.5 mph - N/A   Scattered Clouds
6:00 PM 64.4 °F 51.8 °F 64% 29.86 in 6.2 mi North 6.9 mph - N/A   Scattered Clouds
7:00 PM 62.6 °F 50.0 °F 63% 29.86 in 6.2 mi North 6.9 mph - N/A   Scattered Clouds
8:00 PM 62 °F 51 °F 59% 29.90 in 6 mi North 8.1 mph - -   Partly Cloudy
8:00 PM 62.6 °F 51.8 °F 68% 29.89 in 6.2 mi North 8.1 mph - N/A   Scattered Clouds
9:00 PM 60.8 °F 51.8 °F 72% 29.89 in 6.2 mi North 5.8 mph - N/A   Scattered Clouds
10:00 PM 60.8 °F 50.0 °F 68% 29.89 in 6.2 mi NNE 6.9 mph - N/A   Scattered Clouds
11:00 PM 60 °F 49 °F 59% 29.88 in 6 mi NE 4.6 mph - -  
11:00 PM 60.8 °F 50.0 °F 68% 29.89 in - NE 4.6 mph - N/A   Clear